Regional Weather Roundup
Issued by NWS Newport/Morehead, NC

Current Version | Previous Version | Text Only | Print | Product List | Glossary On
Versions: 1 2 3 4 5 6 7 8 9 10 11 12 13 14 15 16 17 18 19 20 21 22 23 24 25 26 27 28 29 30 31 32 33 34 35 36 37 38 39 40 41 42 43 44 45 46 47 48 49 50
000
ASUS42 KMHX 230010
RWRMHX
WEATHER ROUNDUP FOR EASTERN NORTH CAROLINA
NATIONAL WEATHER SERVICE NEWPORT/MOREHEAD CITY NC
800 PM EDT MON SEP 22 2014

NOTE: "FAIR" INDICATES FEW OR NO CLOUDS BELOW 12,000 FEET
WITH NO SIGNIFICANT WEATHER AND/OR OBSTRUCTIONS TO VISIBILITY

NCZ015>017-031-032-045>047-102-103-230100-
NORTH COAST

CITY           SKY/WX    TMP DP  RH WIND       PRES   REMARKS
EDENTON        CLEAR     66  61  84 NE3       30.08R
ELIZABETH CITY CLEAR     67  58  72 E7        30.08R
KITTY HAWK     CLEAR     70  58  65 NE5       30.07R
MANTEO         CLEAR     69  58  67 NE7       30.08R

$$

NCZ045>047-081-094-103-104-230100-
CENTRAL COAST

CITY           SKY/WX    TMP DP  RH WIND       PRES   REMARKS
FRISCO         CLEAR     68  61  78 NE6       30.06R
SWANQUARTER      N/A     70 N/A N/A NE5       30.03S

$$

NCZ095-097-098-100-101-230100-
SOUTHERN COAST

CITY           SKY/WX    TMP DP  RH WIND       PRES   REMARKS
BEAUFORT       CLEAR     72  62  71 NE3       30.06R
CEDAR ISLAND     N/A     73 N/A N/A NE8G14    30.09S
JACKSONVILLE   MOCLDY    75  57  53 N6        30.07R
NEWPORT        NOT AVBL
PINEY ISLAND   CLEAR     75  65  70 NE9       30.06R
WILMINGTON     CLOUDY    75  63  66 CALM      30.06R


$$

NCZ011>013-027>030-043-044-078>080-089-090>093-098-230100-
COASTAL PLAIN

CITY           SKY/WX    TMP DP  RH WIND       PRES   REMARKS
AHOSKIE        PTCLDY    63  58  83 CALM      30.09R
CLINTON        CLOUDY    72  61  69 CALM      30.09R
ELIZABETHTOWN  CLOUDY    73  62  68 NW3       30.08R
GOLDSBORO      CLOUDY    72  61  68 CALM      30.08R
GREENVILLE     MOCLDY    66  61  82 CALM      30.09R
HAVELOCK       MOCLDY    73  62  68 NE3       30.07R
KENANSVILLE    CLOUDY    69  61  77 CALM      30.09R
KINSTON        NOT AVBL
NEW BERN       PTCLDY    70  63  78 CALM      30.08R
RICHLANDS      CLOUDY    70  61  73 CALM      30.08R
ROANOKE RAPIDS NOT AVBL
ROCKY MOUNT    CLOUDY    69  57  65 N5        30.09R
WASHINGTON     PTCLDY    65  61  85 CALM      30.08R
WHITEVILLE     CLOUDY    72  66  82 CALM      30.07R

$$

AMZ130-135-150-152-154-156-158-170-250-252-270-ANZ085-086-088-633-658-670-230100-
MARINE OBSERVATIONS

STATION/POSITION TIME  TEMP    WIND        PRES    WAVE   SWELL
                       AIR SEA DIR/SP/G            HT/PER HT/PER
                 (UTC) (F)     (DEG/KT/KT) (MB)    (FT/S) (FT/S)
CHESAPEAKE LIGHT 2300   71      20/  9/ 10 1018.6
BUOY 44014       0000   72 76  340/ 14/ 16 1017.8    3/ 5   2/ 6
DUCK             0000   72 75   30/ 11/ 11 1017.5
2E DUCK          NOT AVBL
OREGON INLET     0000   71 75   30/  9/ 12 1018.1
BUOY 44095       NOT AVBL
20E OREGON INLET NOT AVBL
HATTERAS CG      NOT AVBL
DIAMOND BUOY     0000   73      10/ 14/ 17 1017.4    4/ 7   2/ 7
CAPE LOOKOUT     2300   75      20/  8/ 10 1016.9
BEAUFORT LAB     0000   73 76   40/  3/  4 1017.2
30 SE NEW RIVER  0000   78 82   50/  8/ 10 1017.1    3/ 8   3/ 8
5 SE WRIGHTSVILL 2300   71 79  160/ 12/ 14   N/A
BUOY 41002       2240   80 81  200/  8/ 10 1017.1    3/ 7   3/ 7
BUOY 41004       0000   81 82  230/  8/  8 1016.3    3/ 5   3/ 5

$$



USA.gov is the U.S. government's official web portal to all federal, state and local government web resources and services.